FLOCK 4V-2 (46321 NORAD) Tracking and Keplerian Element Data

This shows tracking and keplerian element data for the satellite.

Feedback or suggestion? Click here.




ElementValue
Catalog46321
NameFLOCK 4V-2
Epoch Orbit1285
Epoch Day333.178427
Epoch Year2020
RAAN44.7741
Inclination97.512
Eccentricity0.0002875
Argument of Perigee4.9378
Mean Anonmoly355.188
Mean Motion15.10902052
Decay Rate1.99E-05
L11 46321U 20061BB 20333.17842700 .00001990 00000-0 12330-3 0 9996
L22 46321 97.5120 44.7741 0002875 4.9378 355.1880 15.10902052 12853

Live tracking and technical data element details for FLOCK 4V-2 (NORAD 46321). FLOCK 4V-2 can be tracked NOW for your location showing map with azimuth and elevation plus other details from your city location.

Track the satellite on the map from your city or location and see movement details for azimuth, elevation, latitude, longitude, range, height, and movement on the map or in text.







IsCatalogInMostPopularTable: catalog: 46321, numindb: 11
Update: records affected: 1



GetName: 46321 FLOCK 4V-2

Hit Count: updated at: Sun, 29 Nov 2020 10:41:43 GMT